FW6397 Weather Reports


Display with metric or nautical units.
time (UTC)temp
F
wind
direction
speed
MPH
gust
MPH
rain 1hr
in
rain 24hr
in
rain mn
in
humidity
%
barometer
mb
20210301130539 33 347 2.0 3.0 0.00 0.00 0.00 25 1025.9
20210301130059 33 347 2.0 4.0 0.00 0.00 0.00 23 1026.0
20210301125533 33 347 2.0 4.0 0.00 0.00 0.00 25 1025.9
20210301125252 33 347 0.0 3.0 0.00 0.00 0.00 25 1025.7
20210301124620 33 347 0.0 3.0 0.00 0.00 0.00 25 1025.7
20210301124041 34 347 2.0 3.0 0.00 0.00 0.00 24 1025.5
20210301123521 34 347 0.0 4.0 0.00 0.00 0.00 24 1025.4
20210301123054 34 347 2.0 4.0 0.00 0.00 0.00 23 1025.3
20210301122659 34 347 2.0 5.0 0.00 0.00 0.00 24 1025.3
20210301122040 34 347 2.0 5.0 0.00 0.00 0.00 24 1025.1
20210301121552 33 347 2.0 5.0 0.00 0.00 0.00 24 1025.1
20210301121043 34 347 0.0 1.0 0.00 0.00 0.00 22 1024.9
20210301120536 35 347 0.0 2.0 0.00 0.00 0.00 22 1025.0
20210301120050 35 347 0.0 2.0 0.00 0.00 0.00 21 1025.0
20210301115532 35 347 0.0 1.0 0.00 0.00 0.00 19 1024.9
20210301115020 36 347 0.0 2.0 0.00 0.00 0.00 18 1024.9
20210301114521 36 347 0.0 4.0 0.00 0.00 0.00 18 1024.8
20210301113213 38 347 2.0 5.0 0.00 0.00 0.00 17 1024.5
20210301112914 39 347 4.0 5.0 0.00 0.00 0.00 16 1024.5
20210301112111 40 347 0.0 8.0 0.00 0.00 0.00 15 1024.3
20210301111634 42 347 2.0 9.0 0.00 0.00 0.00 13 1024.2
20210301111057 43 347 5.0 9.0 0.00 0.00 0.00 13 1024.1
20210301110551 43 347 4.0 8.0 0.00 0.00 0.00 13 1024.1
20210301110127 42 347 3.0 5.0 0.00 0.00 0.00 13 1024.1
20210301105610 42 347 2.0 5.0 0.00 0.00 0.00 13 1024.1
20210301105254 42 347 2.0 5.0 0.00 0.00 0.00 13 1024.1
20210301104632 43 347 1.0 5.0 0.00 0.00 0.00 13 1024.1
20210301104049 43 347 2.0 6.0 0.00 0.00 0.00 12 1024.1
20210301103625 43 347 2.0 6.0 0.00 0.00 0.00 12 1024.0
20210301103045 43 347 2.0 9.0 0.00 0.00 0.00 12 1024.0
20210301102656 43 347 4.0 9.0 0.00 0.00 0.00 12 1024.0
20210301102037 43 347 3.0 8.0 0.00 0.00 0.00 12 1024.0
20210301101609 43 347 2.0 5.0 0.00 0.00 0.00 12 1024.0
20210301101050 43 347 1.0 8.0 0.00 0.00 0.00 12 1024.0
20210301100536 43 347 1.0 9.0 0.00 0.00 0.00 12 1023.8
20210301100043 43 347 5.0 12.0 0.00 0.00 0.00 12 1023.8
20210301095532 43 347 7.0 12.0 0.00 0.00 0.00 12 1023.7
20210301095049 43 347 8.0 11.0 0.00 0.00 0.00 12 1023.7
20210301094537 43 347 7.0 11.0 0.00 0.00 0.00 12 1023.6
20210301094028 43 347 6.0 11.0 0.00 0.00 0.00 12 1023.6
20210301093544 43 347 7.0 12.0 0.00 0.00 0.00 12 1023.5
20210301093116 44 347 9.0 12.0 0.00 0.00 0.00 11 1023.6
20210301092708 43 347 5.0 10.0 0.00 0.00 0.00 11 1023.6
20210301092029 44 347 5.0 10.0 0.00 0.00 0.00 11 1023.7
20210301091554 44 347 7.0 10.0 0.00 0.00 0.00 11 1023.8
20210301091027 44 347 6.0 11.0 0.00 0.00 0.00 11 1023.8
20210301090522 44 347 7.0 10.0 0.00 0.00 0.00 11 1023.8
20210301090038 44 347 4.0 9.0 0.00 0.00 0.00 11 1023.8
20210301085521 44 347 4.0 9.0 0.00 0.00 0.00 11 1023.7
20210301085031 44 347 5.0 10.0 0.00 0.00 0.00 11 1023.7
20210301084536 44 347 5.0 11.0 0.00 0.00 0.00 11 1023.7
20210301084032 44 347 7.0 11.0 0.00 0.00 0.00 11 1023.7
20210301083525 44 347 6.0 11.0 0.00 0.00 0.00 11 1023.7
20210301083019 44 347 7.0 12.0 0.00 0.00 0.00 11 1023.6
20210301082613 44 347 6.0 12.0 0.00 0.00 0.00 11 1023.6
20210301082005 44 347 5.0 10.0 0.00 0.00 0.00 11 1023.8
20210301081705 45 347 4.0 10.0 0.00 0.00 0.00 11 1023.8
20210301081217 45 347 6.0 12.0 0.00 0.00 0.00 11 1023.7
20210301080601 45 347 6.0 13.0 0.00 0.00 0.00 11 1023.6
20210301080246 45 347 5.0 14.0 0.00 0.00 0.00 11 1023.5
20210301075112 45 347 7.0 14.0 0.00 0.00 0.00 11 1023.2
20210301074657 45 347 5.0 14.0 0.00 0.00 0.00 11 1023.2
20210301074057 45 347 4.0 14.0 0.00 0.00 0.00 11 1023.2
20210301073610 46 347 6.0 14.0 0.00 0.00 0.00 10 1023.1
20210301073131 46 347 7.0 14.0 0.00 0.00 0.00 10 1023.2
20210301072654 46 347 6.0 16.0 0.00 0.00 0.00 10 1023.1
20210301072054 46 347 6.0 12.0 0.00 0.00 0.00 10 1023.2
20210301071639 46 347 8.0 12.0 0.00 0.00 0.00 10 1023.3
20210301071055 46 347 7.0 12.0 0.00 0.00 0.00 10 1023.3
20210301070546 46 347 4.0 11.0 0.00 0.00 0.00 11 1023.3
20210301070118 45 347 5.0 11.0 0.00 0.00 0.00 11 1023.3
20210301065558 45 347 6.0 10.0 0.00 0.00 0.00 11 1023.3
20210301065055 45 347 5.0 10.0 0.00 0.00 0.00 11 1023.4
20210301064623 45 347 3.0 11.0 0.00 0.00 0.00 11 1023.3
20210301064042 45 347 3.0 11.0 0.00 0.00 0.00 11 1023.3
20210301063534 45 347 6.0 13.0 0.00 0.00 0.00 11 1023.2
20210301063104 45 347 6.0 11.0 0.00 0.00 0.00 11 1023.3
20210301062628 45 347 6.0 11.0 0.00 0.00 0.00 11 1023.3
20210301062037 45 347 4.0 11.0 0.00 0.00 0.00 11 1023.4
20210301061606 45 347 4.0 10.0 0.00 0.00 0.00 11 1023.4
20210301061027 45 347 5.0 10.0 0.00 0.00 0.00 11 1023.4
20210301060524 45 347 2.0 9.0 0.00 0.00 0.00 11 1023.4
20210301060116 45 347 3.0 10.0 0.00 0.00 0.00 12 1023.4
20210301055608 45 347 4.0 10.0 0.00 0.00 0.00 12 1023.3
20210301055026 45 347 4.0 8.0 0.00 0.00 0.00 12 1023.3
20210301054551 44 347 4.0 8.0 0.00 0.00 0.00 12 1023.4
20210301054024 44 347 3.0 8.0 0.00 0.00 0.00 13 1023.3
20210301053524 44 347 3.0 6.0 0.00 0.00 0.00 13 1023.3
20210301053031 44 347 2.0 5.0 0.00 0.00 0.00 13 1023.3
20210301052626 45 347 2.0 5.0 0.00 0.00 0.00 13 1023.3
20210301052024 45 347 2.0 6.0 0.00 0.00 0.00 13 1023.3
20210301051523 45 347 2.0 6.0 0.00 0.00 0.00 13 1023.2
20210301051027 45 347 2.0 5.0 0.00 0.00 0.00 13 1023.3
20210301050528 45 347 2.0 5.0 0.00 0.00 0.00 13 1023.2
20210301050036 45 347 2.0 5.0 0.00 0.00 0.00 13 1023.2
20210301045510 45 347 0.0 2.0 0.00 0.00 0.00 13 1023.2
20210301045130 45 347 0.0 3.0 0.00 0.00 0.00 13 1023.2
20210301044805 46 347 0.0 5.0 0.00 0.00 0.00 12 1023.1
20210301044058 46 347 2.0 6.0 0.00 0.00 0.00 12 1023.1
20210301043614 46 347 3.0 8.0 0.00 0.00 0.00 12 1022.9
20210301043136 47 347 2.0 10.0 0.00 0.00 0.00 12 1022.9
20210301042700 48 347 4.0 10.0 0.00 0.00 0.00 10 1022.8
20210301042054 49 347 4.0 12.0 0.00 0.00 0.00 10 1022.6
20210301041647 49 347 6.0 15.0 0.00 0.00 0.00 10 1022.7
20210301041051 49 347 8.0 13.0 0.00 0.00 0.00 10 1022.6
20210301040551 49 347 5.0 14.0 0.00 0.00 0.00 10 1022.7
20210301040203 49 347 7.0 14.0 0.00 0.00 0.00 10 1022.5
20210301035546 49 347 7.0 15.0 0.00 0.00 0.00 10 1022.5
20210301035347 49 347 9.0 15.0 0.00 0.00 0.00 10 1022.5
20210301034624 49 347 7.0 13.0 0.00 0.00 0.00 10 1022.4
20210301034048 49 347 9.0 13.0 0.00 0.00 0.00 10 1022.4
20210301033555 49 347 7.0 13.0 0.00 0.00 0.00 10 1022.3
20210301033124 49 347 4.0 15.0 0.00 0.00 0.00 10 1022.2
20210301032638 50 347 8.0 15.0 0.00 0.00 0.00 10 1022.1
20210301032043 50 347 6.0 15.0 0.00 0.00 0.00 10 1022.0
20210301031636 50 347 7.0 15.0 0.00 0.00 0.00 10 1022.0
20210301031032 50 347 5.0 14.0 0.00 0.00 0.00 10 1022.0
20210301030554 50 347 7.0 16.0 0.00 0.00 0.00 10 1022.0
20210301030053 50 347 8.0 18.0 0.00 0.00 0.00 10 1022.0
20210301025548 50 347 8.0 18.0 0.00 0.00 0.00 10 1021.8
20210301025041 50 347 8.0 17.0 0.00 0.00 0.00 10 1021.7
20210301024551 50 347 7.0 14.0 0.00 0.00 0.00 10 1021.7
20210301024027 50 347 8.0 14.0 0.00 0.00 0.00 10 1021.7
20210301023522 51 347 7.0 14.0 0.00 0.00 0.00 10 1021.6
20210301023127 51 347 8.0 14.0 0.00 0.00 0.00 10 1021.6
20210301022716 51 347 8.0 16.0 0.00 0.00 0.00 10 1021.4
20210301022023 51 347 9.0 13.0 0.00 0.00 0.00 10 1021.4
20210301021547 51 347 6.0 13.0 0.00 0.00 0.00 10 1021.4
20210301021027 51 347 6.0 15.0 0.00 0.00 0.00 10 1021.4
20210301020521 51 347 6.0 14.0 0.00 0.00 0.00 10 1021.3
20210301020040 51 347 7.0 13.0 0.00 0.00 0.00 11 1021.3
20210301015519 51 347 5.0 10.0 0.00 0.00 0.00 11 1021.1
20210301015020 51 347 5.0 13.0 0.00 0.00 0.00 11 1021.1
20210301014519 51 347 4.0 11.0 0.00 0.00 0.00 11 1021.1
20210301014019 51 347 7.0 13.0 0.00 0.00 0.00 12 1021.0
20210301013639 51 347 8.0 15.0 0.00 0.00 0.00 12 1020.9
20210301013515 51 347 7.0 15.0 0.00 0.00 0.00 12 1020.9
20210301013130 52 347 8.0 15.0 0.00 0.00 0.00 12 1020.9
20210301012702 52 347 8.0 22.0 0.00 0.00 0.00 12 1020.9
20210301012100 52 347 13.0 22.0 0.00 0.00 0.00 12 1020.8
20210301011643 52 347 9.0 18.0 0.00 0.00 0.00 12 1020.6
20210301011119 52 347 7.0 19.0 0.00 0.00 0.00 12 1020.6
20210301010619 52 347 12.0 19.0 0.00 0.00 0.00 12 1020.5
20210301010148 52 347 11.0 19.0 0.00 0.00 0.00 12 1020.4
20210301005550 52 347 10.0 17.0 0.00 0.00 0.00 12 1020.3
20210301005339 52 347 6.0 17.0 0.00 0.00 0.00 13 1020.3
20210301004641 52 347 10.0 19.0 0.00 0.00 0.00 13 1020.3
20210301004045 52 347 10.0 19.0 0.00 0.00 0.00 13 1020.2
20210301003554 53 352 7.0 18.0 0.00 0.00 0.00 14 1020.1
20210301003120 53 352 10.0 21.0 0.00 0.00 0.00 14 1020.0
20210301002718 53 347 12.0 21.0 0.00 0.00 0.00 14 1020.0
20210301001631 53 347 12.0 25.0 0.00 0.00 0.00 14 1019.9
20210301001044 54 347 13.0 25.0 0.00 0.00 0.00 13 1019.7
20210301000548 54 352 11.0 20.0 0.00 0.00 0.00 13 1019.6
20210301000054 54 352 6.0 16.0 0.00 0.00 0.00 13 1019.4
20210228235546 54 352 9.0 22.0 0.00 0.00 0.00 13 1019.5
20210228235231 54 352 12.0 22.0 0.00 0.00 0.00 13 1019.4
20210228234604 53 352 11.0 26.0 0.00 0.00 0.00 14 1019.5
20210228234040 53 347 14.0 26.0 0.00 0.00 0.00 14 1019.4
20210228233533 53 352 14.0 26.0 0.00 0.00 0.00 14 1019.3
20210228233118 53 352 10.0 22.0 0.00 0.00 0.00 14 1019.3
20210228232718 54 347 11.0 21.0 0.00 0.00 0.00 13 1019.2
20210228232037 54 352 14.0 23.0 0.00 0.00 0.00 13 1019.1
20210228231558 54 347 9.0 20.0 0.00 0.00 0.00 13 1019.2
20210228231028 54 352 11.0 20.0 0.00 0.00 0.00 13 1019.0
20210228230535 54 352 6.0 19.0 0.00 0.00 0.00 13 1019.0
20210228230032 54 352 8.0 19.0 0.00 0.00 0.00 13 1018.9
20210228225527 54 352 8.0 21.0 0.00 0.00 0.00 13 1018.9
20210228225121 54 352 11.0 23.0 0.00 0.00 0.00 13 1018.9
20210228224535 54 352 11.0 23.0 0.00 0.00 0.00 13 1018.9
20210228224024 54 352 13.0 24.0 0.00 0.00 0.00 13 1018.8
20210228223520 54 352 13.0 24.0 0.00 0.00 0.00 12 1018.9
20210228223035 54 352 9.0 25.0 0.00 0.00 0.00 13 1018.7
20210228222544 54 352 12.0 26.0 0.00 0.00 0.00 12 1018.8
20210228222026 54 352 12.0 24.0 0.00 0.00 0.00 11 1018.7
20210228221516 54 352 10.0 24.0 0.00 0.00 0.00 11 1018.6
20210228221019 53 352 7.0 28.0 0.00 0.00 0.00 11 1018.4
20210228220602 54 352 10.0 28.0 0.00 0.00 0.00 11 1018.6
20210228220520 54 352 13.0 28.0 0.00 0.00 0.00 10 1018.7
20210228220125 54 352 12.0 26.0 0.00 0.00 0.00 10 1018.6
20210228215557 54 352 9.0 22.0 0.00 0.00 0.00 11 1018.7
20210228215257 53 352 10.0 24.0 0.00 0.00 0.00 10 1018.7
20210228214650 53 352 11.0 24.0 0.00 0.00 0.00 10 1018.8
20210228214056 53 352 8.0 22.0 0.00 0.00 0.00 11 1018.7
20210228213609 53 352 11.0 24.0 0.00 0.00 0.00 11 1018.7
20210228213109 54 352 12.0 26.0 0.00 0.00 0.00 10 1018.8
20210228212048 54 352 18.0 27.0 0.00 0.00 0.00 9 1018.7
20210228211612 53 352 10.0 20.0 0.00 0.00 0.00 8 1018.4
20210228211054 54 352 12.0 18.0 0.00 0.00 0.00 9 1018.4
20210228210551 53 352 8.0 19.0 0.00 0.00 0.00 9 1018.4
20210228210200 53 352 10.0 19.0 0.00 0.00 0.00 8 1018.4
20210228205601 53 347 12.0 21.0 0.00 0.00 0.00 7 1018.4
20210228205259 53 352 12.0 21.0 0.00 0.00 0.00 7 1018.5
20210228204542 53 347 12.0 24.0 0.00 0.00 0.00 7 1018.5
20210228204041 53 352 13.0 26.0 0.00 0.00 0.00 7 1018.4
20210228203535 53 352 14.0 26.0 0.00 0.00 0.00 7 1018.2
20210228203204 53 347 13.0 22.0 0.00 0.00 0.00 7 1018.2
20210228202605 53 347 12.0 22.0 0.00 0.00 0.00 7 1018.5
20210228202036 54 347 13.0 24.0 0.00 0.00 0.00 7 1018.5
20210228201609 54 347 15.0 24.0 0.00 0.00 0.00 8 1018.4
20210228201030 54 352 12.0 23.0 0.00 0.00 0.00 8 1018.3
20210228200537 54 352 11.0 23.0 0.00 0.00 0.00 8 1018.3
20210228200037 54 352 11.0 22.0 0.00 0.00 0.00 8 1018.4
20210228195540 54 352 12.0 22.0 0.00 0.00 0.00 9 1018.3
20210228195032 54 352 11.0 20.0 0.00 0.00 0.00 8 1018.4
20210228194542 54 352 6.0 23.0 0.00 0.00 0.00 9 1018.4
20210228194033 55 352 11.0 18.0 0.00 0.00 0.00 9 1018.3
20210228193531 54 352 10.0 18.0 0.00 0.00 0.00 9 1018.3
20210228193051 54 352 8.0 18.0 0.00 0.00 0.00 10 1018.3
20210228192647 54 352 8.0 21.0 0.00 0.00 0.00 10 1018.3
20210228192021 54 352 11.0 21.0 0.00 0.00 0.00 10 1018.3
20210228191529 54 352 8.0 20.0 0.00 0.00 0.00 11 1018.4
20210228191023 54 352 7.0 22.0 0.00 0.00 0.00 11 1018.3
20210228190531 54 352 11.0 22.0 0.00 0.00 0.00 11 1018.4
20210228190033 53 352 6.0 15.0 0.00 0.00 0.00 11 1018.3
20210228185525 53 352 8.0 15.0 0.00 0.00 0.00 11 1018.4
20210228185021 53 352 6.0 17.0 0.00 0.00 0.00 12 1018.3
20210228184526 53 352 11.0 17.0 0.00 0.00 0.00 12 1018.5
20210228184010 54 352 7.0 18.0 0.00 0.00 0.00 12 1018.4
20210228183600 53 352 10.0 18.0 0.00 0.00 0.00 12 1018.4
20210228183218 53 352 9.0 20.0 0.00 0.00 0.00 11 1018.4
20210228182755 53 352 14.0 20.0 0.00 0.00 0.00 11 1018.4
20210228182109 53 352 10.0 15.0 0.00 0.00 0.00 12 1018.4
20210228181618 53 352 6.0 15.0 0.00 0.00 0.00 12 1018.5
20210228181054 53 352 7.0 15.0 0.00 0.00 0.00 12 1018.5
20210228180555 53 352 9.0 16.0 0.00 0.00 0.00 13 1018.4
20210228180150 53 352 9.0 17.0 0.00 0.00 0.00 13 1018.4
20210228175550 53 352 10.0 19.0 0.00 0.00 0.00 13 1018.4
20210228175230 53 352 11.0 19.0 0.00 0.00 0.00 13 1018.4
20210228174605 52 352 6.0 18.0 0.00 0.00 0.00 13 1018.4
20210228174048 52 352 8.0 18.0 0.00 0.00 0.00 13 1018.4
20210228173556 53 352 8.0 16.0 0.00 0.00 0.00 13 1018.4
20210228173255 53 352 5.0 12.0 0.00 0.00 0.00 13 1018.3
20210228172729 52 352 6.0 12.0 0.00 0.00 0.00 13 1018.4
20210228172118 52 352 7.0 12.0 0.00 0.00 0.00 13 1018.4
20210228171720 52 352 7.0 12.0 0.00 0.00 0.00 12 1018.3
20210228171059 52 352 7.0 12.0 0.00 0.00 0.00 13 1018.3
20210228170549 52 352 6.0 13.0 0.00 0.00 0.00 12 1018.3
20210228170117 52 352 7.0 13.0 0.00 0.00 0.00 13 1018.4
20210228165533 51 352 7.0 14.0 0.00 0.00 0.00 13 1018.3
20210228165033 51 352 8.0 14.0 0.00 0.00 0.00 13 1018.3
20210228164632 51 352 8.0 14.0 0.00 0.00 0.00 13 1018.3
20210228164034 51 352 3.0 13.0 0.00 0.00 0.00 13 1018.3
20210228163526 51 352 9.0 13.0 0.00 0.00 0.00 12 1018.4
20210228163120 50 352 3.0 14.0 0.00 0.00 0.00 12 1018.4
20210228162740 50 352 8.0 14.0 0.00 0.00 0.00 11 1018.4
20210228162033 50 352 8.0 13.0 0.00 0.00 0.00 12 1018.4
20210228161606 50 352 8.0 11.0 0.00 0.00 0.00 13 1018.4
20210228161031 50 352 5.0 14.0 0.00 0.00 0.00 13 1018.4
20210228160540 50 352 8.0 14.0 0.00 0.00 0.00 13 1018.3
20210228160044 49 352 9.0 14.0 0.00 0.00 0.00 13 1018.4
20210228155519 49 352 6.0 12.0 0.00 0.00 0.00 14 1018.3
20210228155043 49 352 5.0 15.0 0.00 0.00 0.00 14 1018.3
20210228154630 48 352 7.0 17.0 0.00 0.00 0.00 15 1018.3
20210228154026 49 352 11.0 17.0 0.00 0.00 0.00 14 1018.3
20210228153525 49 352 9.0 13.0 0.00 0.00 0.00 15 1018.3
20210228153051 49 352 2.0 3.0 0.00 0.00 0.00 18 1018.0
20210228152722 49 352 0.0 4.0 0.00 0.00 0.00 18 1017.8
20210228152026 49 352 3.0 8.0 0.00 0.00 0.00 18 1017.7
20210228151542 48 347 3.0 9.0 0.00 0.00 0.00 17 1017.6
20210228151022 48 347 3.0 10.0 0.00 0.00 0.00 17 1017.6
20210228150525 48 347 5.0 10.0 0.00 0.00 0.00 17 1017.5
20210228150037 48 347 4.0 9.0 0.00 0.00 0.00 18 1017.6
20210228145531 48 347 3.0 8.0 0.00 0.00 0.00 18 1017.4
20210228145024 47 347 4.0 6.0 0.00 0.00 0.00 18 1017.3
20210228144540 47 347 1.0 6.0 0.00 0.00 0.00 19 1017.3
20210228144028 47 347 1.0 8.0 0.00 0.00 0.00 20 1017.2
20210228143515 47 347 5.0 8.0 0.00 0.00 0.00 19 1017.2
20210228143119 47 347 3.0 6.0 0.00 0.00 0.00 19 1017.2
20210228142601 47 347 3.0 6.0 0.00 0.00 0.00 19 1017.0
20210228142021 47 347 3.0 6.0 0.00 0.00 0.00 20 1017.0
20210228141524 47 347 3.0 6.0 0.00 0.00 0.00 19 1017.0
20210228141011 47 347 2.0 6.0 0.00 0.00 0.00 19 1017.0
20210228140520 47 347 3.0 8.0 0.00 0.00 0.00 19 1016.9
20210228140025 47 347 2.0 8.0 0.00 0.00 0.00 19 1016.9
20210228135520 47 347 3.0 8.0 0.00 0.00 0.00 19 1016.8
20210228135018 47 347 4.0 8.0 0.00 0.00 0.00 19 1016.7
20210228134105 46 347 4.0 8.0 0.00 0.00 0.00 21 1016.6
20210228133601 46 347 2.0 6.0 0.00 0.00 0.00 21 1016.7
20210228133225 47 347 3.0 6.0 0.00 0.00 0.00 21 1016.5
20210228132750 47 347 3.0 6.0 0.00 0.00 0.00 21 1016.4
20210228132057 47 347 3.0 8.0 0.00 0.00 0.00 20 1016.3
20210228131714 47 347 2.0 8.0 0.00 0.00 0.00 20 1016.2
20210228131053 47 347 3.0 6.0 0.00 0.00 0.00 20 1016.3